Погода Nis

Погода Nis : погода сейчас, прогноз погоды и архив. Всё, что Вы хотите узнать о погоде Nis!

Поиск расширенной информации на нашем сайте:

Другие новости

Новости СМИ2

Главная страница сайта

Новости сайта

03.07.2017

Напоминаем, что на нашем специализированном сайте Метеоцентр.Азия вы можете получить высокодетализированные автоматические прогнозы погоды по пунктам России, СНГ и мира в авиационном формате (включающие направление и скорость ветра, видимость, явления погоды, количество и форму облачности, нижнюю и верхнюю границу облачности).


Погода Nis - сегодня

Время (UTC), дата Ветер
(°,м/с) 
Видим.   Явления Облачность Т
(°С)
Тd
(°С)
f(%) Тe
(°С)
Pmin
(гПа)
dP
(гПа)
Po
(мм)
O2
(г/м3)
Тmin Tmax R s Состояние
почвы
12 22.09.18 300 (СЗ) 30000 м    5/0 верхняя 
[Ci fib]
+30.2 +12.6 34 +35  1017  -0.9  746  268           
15 22.09.18 310 (СЗ) 30000 м    6/1 1000 м средняя, верхняя 
[Sc|Ac trans|Ci fib]
+27.7 +14.4 44 +36  1016.5  -0.7  745  270           
18 22.09.18 310 (СЗ) 30000 м    9/4 1000 м средняя 
[Sc|Ac As]
+23 +13.2 54 +29  1018.6  1.7  746  275    +30.4       
21 22.09.18 300 (СЗ) 30000 м    8/3 1000 м средняя 
[Sc|Ac As]
+19.5 +7.3 45 +21  1021.1  2.2  748  280           
00 23.09.18 290 (З) 30000 м    ясно 
+16.5 +8.9 61 +18  1022.3  0.8  749  283           
03 23.09.18 080 (В) 30000 м    ясно 
+14.2 +9.2 72 +15  1022.5  749  285           
06 23.09.18 060 (СВ) 30000 м    4/0 средняя, верхняя 
[Ac trans|Ci sp]
+13.5 +9.8 78 +16  1022.9  0.3  749  286  +12.3        сухая 
12 23.09.18 180 (Ю) 30000 м    ясно 
+26.5 +11.6 39 +30  1019.7  -2  747  272           
15 23.09.18 310 (СЗ) 30000 м    ясно 
+28 +12.8 39 +33  1018  -1.6  746  270           
18 23.09.18 тихо ()   30000 м    ясно 
+21.3 +13.3 60 +27  1017.9  -0.6  746  276    +28.5       
21 23.09.18 тихо ()   30000 м    ясно 
+17.7 +13.5 76 +24  1017.8  -0.4  745  279           
00 24.09.18 тихо ()   30000 м    ясно 
+15.2 +13.6 90 +22  1016.2  -1.7  744  281           
06 24.09.18 тихо ()   30000 м    ясно 
+16.3 +13.2 82 +22  1014.9  743  280  +12.8        сухая 
09 24.09.18 300 (СЗ) 5-13{13}  30000 м    9/9 1000 м 
[Cu Sc]
+22.5 +13.8 58 +29  1015.4  744  274           
12 24.09.18 300 (СЗ) 4-11{16}  15000 м  в посл. час дождь  10/10 1000 м 
[Cu Sc]
+13.5 +10 79 +14  1021.8  5.4  748  285      0.0     
18 24.09.18 310 (СЗ) 10 км  слаб. дождь  10/10 1000 м 
[Cu Sc]
+9.3 +7.8 90 +9  1027.5  2.6  752  292    +23.4  0.3     
21 24.09.18 тихо ()   20000 м    6/5 1000 м средняя 
[Sc|Ac trans]
+8.4 +8 97 +8  1029  1.4  753  293           
00 25.09.18 360 (С) 20000 м  {дождь}  9/9 1000 м 
[Sc]
+8.6 +7.6 93 +10  1029.9  0.9  754  293         
06 25.09.18 280 (З) 20000 м    4/4 1000 м 
[Sc]
+9 +5.2 77 +10  1031.7  1.3  755  294  +7.1      влажная 
09 25.09.18 300 (СЗ) 20000 м    4/4 1000 м 
[Sc]
+12.5 +4.8 59 +12  1032  0.6  755  290           
12 25.09.18 300 (СЗ) 5{12}  20000 м    1/1 1000 м 
[Cu hum]
+15.8 +1 37 +16  1030.9  -0.8  755  287           
15 25.09.18 310 (СЗ) 20000 м    ясно 
+14.9 +1 39 +15  1030.7  -0.3  755  288           
18 25.09.18 330 (СЗ) 20000 м    3/0 
[Sc]
+10.1 +2.7 60 +10  1032.7  1.6  756  293    +16.8       
21 25.09.18 тихо ()   20000 м    ясно 
+6.1 +3.1 81 +6  1034.9  2.3  757  298           
00 26.09.18 070 (В) 20000 м    4/1 1000 м средняя 
[Sc|Ac trans]
+6.1 +2.8 79 +7  1035.3  0.3  757  298           
Время (UTC), дата Ветер
(°,м/с) 
Видим.   Явления Облачность Т
(°С)
Тd
(°С)
f(%) Тe
(°С)
Pmin
(гПа)
dP
(гПа)
Po
(мм)
O2
(г/м3)
Тmin Tmax R s Состояние
почвы

Для получения пояснительной информации подведите курсор к названию столбца.

ПОГОДА Nis - архив

Всё, что Вы хотите узнать о погоде Nis - удобно и подробно!

Выберите нужную дату (начиная с 1 января 2015* года) и нажмите кнопку "Найти".
Будут отображены архивные сводки погоды по пункту Nis, начиная с указанной даты.


Отображать данные в формате CSV (для использования в таблицах Excel)


Внимание! Наш архив погоды предназначен исключительно для личного некоммерческого использования в познавательных целях. Если Вам необходимы официальные справки о состоянии погоды (для производственных, юридических, коммерческих и т.п. целей), обращайтесь в органы Росгидромета.

*Примечание: данная дата относится к архиву по метеостанциям СССР (Россия, СНГ, Балтия).
Архив по метеостанциям Зарубежной Европы и Азии (кроме Китая) хранится 10 дней, по другим регионам земного шара (Китай, Африка, Америка, Австралия, Океания) - 1 день.

Nis - район местоположения метеостанции


Название, широта, долгота, высота метеостанции:
Nis 43.3°ш. 21.9°д. 202 м над ур. моря [Serbia]

Дополнительная информация

В oтличие oт бoльшинства пoгoдных сайтoв мы публикуем пoдрoбную метеoинфoрмацию в детальнoм прoфессиoнальнoм фoрмате.

Характеристики температуры и влажнoсти вoздуха измеряются на высoте 2 м в тени вдали oт зданий и деревьев.
Скoрoсть ветра измеряется на высoте 10 м (на урoвне рoста челoвека скoрoсть ветра ниже в 1.5-2 раза). Если метеoстанция нахoдится в гoрoде или в лесу, тo скoрoсть ветра занижена на 2-4 м/с пo сравнению с oткрытым местoм. Скoрoсть ветра над акватoриями крупных рек и oзёр, а также на вершинах хoлмoв на 2-5 м/с выше, чем в oбычных услoвиях.
Атмoсфернoе давление в разных тoчках местнoсти мoжет значительнo oтличаться oт давления на метеoстанции, в зависимoсти oт услoвий рельефа (при пoдъёме на 10 м давление пoнижается примернo на 1 мм рт.ст.).